Regional Weather Roundup
Issued by NWS

Home | Current Version | Previous Version | Text Only | Print | Product List | Glossary Off
Versions: 1 2 3 4 5 6 7 8 9 10 11 12 13 14 15 16 17 18 19 20 21 22 23 24 25 26 27 28 29 30 31 32 33 34 35 36 37 38 39 40 41 42 43 44 45 46 47 48 49 50

000
ASUS43 KDMX 180506
RWRIA

WEATHER ROUNDUP FOR IOWA
NATIONAL WEATHER SERVICE DES MOINES IA
1200 AM CDT WED OCT 18 2017

NOTE: "FAIR" INDICATES FEW OR NO CLOUDS BELOW 12,000 FEET WITH NO
SIGNIFICANT WEATHER AND/OR OBSTRUCTIONS TO VISIBILITY.

* - THESE STATIONS ARE NOT NWS STATIONS...THUS NOT UNDER NWS
QUALITY CONTROL.  THEY ALSO DO NOT REPORT WEATHER SUCH
AS PRECIPITATION OR FOG.

IAZ001>003-012>014-020>022-031>034-043>046-180600-
   NORTHWEST IOWA

CITY           SKY/WX    TMP DP  RH WIND       PRES   REMARKS
CARROLL *      CLEAR     50  48  93 CALM      29.99S
CHEROKEE *     CLEAR     47  44  89 S5        29.96S
DENISON *      CLEAR     55  45  67 VRB7      29.99F
LE MARS *      CLEAR     52  46  82 S6        29.93F
ORANGE CITY *  CLEAR     55  48  76 S6        29.94F
SHELDON *      CLEAR     50  45  81 CALM      29.92F
SIOUX CITY     CLEAR     47  45  93 SE7       29.94F
SPENCER        CLEAR     48  43  82 CALM      29.95F
STORM LAKE *   CLEAR     50  45  81 S8        29.97S
$$

IAZ055>058-069>071-079>083-090>094-180600-
   SOUTHWEST IOWA

CITY           SKY/WX    TMP DP  RH WIND       PRES   REMARKS
ATLANTIC *     CLEAR     50  46  87 SW6       30.01S
AUDUBON *      CLEAR     55  48  76 S9        30.00F
CLARINDA *       N/A     52  46  82 S3        30.05S
COUNCIL BLFS * CLEAR     54  50  87 S9        29.99F
CRESTON *      CLEAR     54  46  76 S13       30.04S
HARLAN  *      CLEAR     48  45  87 S5        30.03F
LAMONI         CLEAR     54  46  74 S9        30.06F
RED OAK *      CLEAR     52  46  82 S5        30.02S
SHENANDOAH *   CLEAR     55  46  71 S6        30.03R
$$

IAZ047>049-059>061-072>074-084-180600-
   CENTRAL IOWA

CITY           SKY/WX    TMP DP  RH WIND       PRES   REMARKS
AMES           CLEAR     51  47  86 S7        30.01F
ANKENY *       CLEAR     57  46  67 S8        30.04S
BOONE *        CLEAR     57  46  67 S10G16    30.00F
CHARITON *     CLEAR     55  46  71 S10       30.06S
DES MOINES     CLEAR     54  46  74 S9        30.03F
GRINNELL*      CLEAR     55  44  67 S9        30.06F
KNOXVILLE *    CLEAR     55  45  67 S8        30.04F
MARSHALLTOWN   CLEAR     55  46  71 S9        30.02F
NEWTON *       CLEAR     52  45  76 S9        30.05S
PELLA *        CLEAR     55  45  69 S6        30.07F
PERRY *          N/A     51  46  85 S7        30.01S
$$

IAZ004>006-015-016-023>025-035-036-180600-
   NORTH CENTRAL IOWA

CITY           SKY/WX    TMP DP  RH WIND       PRES   REMARKS
ALGONA *       CLEAR     52  45  76 S8        29.97F
CLARION *      CLEAR     52  46  82 S12       29.99S
ESTHERVILLE    CLEAR     46  44  93 S6        29.95F
FORT DODGE *   CLEAR     54  45  71 S8        29.99S
MASON CITY     CLEAR     47  42  83 S8        30.00F
FOREST CITY *    N/A     46  43  87 S7        29.98F
WEBSTER CITY * CLEAR     52  45  76 S6        29.98S
IOWA FALLS *     N/A     52  46  80 S7        30.02F
$$

IAZ007>011-017>019-026>030-037>042-050>054-066-180600-
   NORTHEAST IOWA

CITY           SKY/WX    TMP DP  RH WIND       PRES   REMARKS
CEDAR RAPIDS   CLEAR     54  43  66 S9        30.07S
CHARLES CITY * CLEAR     54  45  71 S7        30.01F
CLINTON *      CLEAR     51  42  71 S7        30.12S
DECORAH *      CLEAR     57  45  62 S10G17    30.00F
DUBUQUE        CLEAR     50  42  74 S10       30.08F
MONTICELLO *   CLEAR     52  43  71 S7        30.08S
OELWEIN *      CLEAR     52  45  76 S8        30.04F
WATERLOO       CLEAR     53  44  71 S8        30.02F
$$

IAZ064-065-067-068-078-180600-
   EAST CENTRAL IOWA

CITY           SKY/WX    TMP DP  RH WIND       PRES   REMARKS
DAVENPORT      CLEAR     56  41  57 S12       30.13S
IOWA CITY      CLEAR     55  43  63 S8        30.10S
MUSCATINE *    CLEAR     54  43  66 S8        30.11S
QUAD CITIES    CLEAR     56  41  57 S8        30.11S
$$

IAZ062-063-075>077-085>089-095>099-180600-
   SOUTHEAST IOWA

CITY           SKY/WX    TMP DP  RH WIND       PRES   REMARKS
BURLINGTON     CLEAR     54  44  69 S8        30.13S
FAIRFIELD *    CLEAR     55  43  62 S9        30.09F
FORT MADISON * CLEAR     55  45  67 S7        30.13F
KEOKUK *       CLEAR     57  43  58 S6G13     30.12F
OSKALOOSA *      N/A     48  44  85 S9        30.08F
OTTUMWA        CLEAR     54  44  69 S9        30.08S
WASHINGTON *   CLEAR     54  45  71 S9        30.10F
$$

ABBREVIATIONS USED IN REMARKS
   TC - TEMPERATURES IN CELSIUS
  WCI - WIND CHILL INDEX
   HX - HEAT INDEX
  VSB - VISIBILITY
$$




USA.gov is the U.S. government's official web portal to all federal, state and local government web resources and services.